Date,TemperatureHighF,TemperatureAvgF,TemperatureLowF,DewpointHighF,DewpointAvgF,DewpointLowF,HumidityHigh,HumidityAvg,HumidityLow,PressureMaxIn,PressureMinIn,WindSpeedMaxMPH,WindSpeedAvgMPH,GustSpeedMaxMPH,PrecipitationSumIn
2013-1-1,33,32,27,33,31,25,100,97,88,30.05,29.96,2,0,6,0.05
2013-1-2,28,24,21,26,20,15,94,82,63,30.22,30.04,5,0,6,0.05
2013-1-3,34,26,15,24,21,15,100,80,62,30.22,30.13,9,1,9,0.00
2013-1-4,34,30,28,26,24,23,84,78,63,30.25,30.17,9,2,9,0.00
2013-1-5,38,30,24,28,25,22,94,81,64,30.39,30.21,7,0,8,0.00
2013-1-6,39,38,35,35,32,30,100,81,69,30.15,30.00,3,0,10,0.00
2013-1-7,35,31,26,35,28,25,100,91,77,30.42,30.21,0,0,0,0.00
2013-1-8,43,30,21,32,27,21,100,88,66,30.37,30.27,0,0,0,0.01
2013-1-9,44,37,30,44,35,28,100,90,65,30.48,30.27,4,0,6,0.00
2013-1-10,46,37,31,39,35,31,100,94,69,30.57,30.45,0,0,0,0.04
2013-1-11,59,53,47,54,45,37,87,77,65,30.18,30.01,2,0,0,0.05
2013-1-13,68,66,58,58,55,54,100,68,62,29.95,29.90,6,5,6,0.30
2013-1-14,58,48,40,58,48,29,100,97,73,30.29,29.90,13,1,13,0.36
2013-1-15,35,33,30,30,29,27,90,86,81,30.36,30.20,4,0,5,0.09
2013-1-16,36,35,34,36,35,34,100,100,100,30.02,29.91,5,1,0,0.26
2013-1-17,34,34,34,33,33,33,97,97,97,30.06,30.06,0,0,0,0.00
2013-1-18,33,28,23,30,18,13,96,68,48,30.48,30.16,8,2,13,0.00
2013-1-19,37,36,33,15,15,15,48,43,40,30.28,30.24,2,1,11,0.00
2013-1-20,45,38,27,32,23,15,66,54,35,30.12,29.85,8,3,10,0.00
2013-1-21,30,24,14,23,18,10,95,76,56,30.08,29.89,8,2,11,0.00
2013-1-22,15,11,7,13,4,1,94,73,56,30.25,30.03,9,2,10,0.00
2013-1-23,18,12,5,15,5,2,96,75,55,30.29,30.04,7,0,10,0.00
2013-1-24,23,17,11,17,12,5,98,81,55,30.51,30.02,11,1,13,0.02
2013-1-25,23,18,11,22,15,7,100,89,67,30.49,29.99,1,0,7,0.02
2013-1-26,29,24,21,27,22,17,100,92,74,30.42,30.06,3,0,7,0.14
2013-1-27,35,26,14,26,20,14,100,80,58,30.52,30.30,0,0,2,0.02
2013-1-28,51,41,30,51,40,25,100,97,75,30.30,30.06,8,2,8,0.42
2013-1-29,66,59,51,53,51,48,100,79,58,30.08,29.83,9,2,10,0.45
2013-1-30,72,60,51,57,53,47,100,82,51,29.83,29.30,9,6,11,0.73
2013-1-31,49,28,25,49,22,14,100,77,63,29.85,29.30,9,4,15,1.18
2013-2-1,25,17,12,24,12,7,100,81,67,30.33,29.80,9,2,11,0.12
2013-2-2,25,22,10,25,18,7,100,87,64,30.33,29.96,17,3,17,0.03
2013-2-3,28,25,20,28,24,15,100,98,82,30.02,29.79,5,0,9,0.01
2013-2-4,32,24,19,32,22,15,100,91,69,30.08,29.85,6,1,8,0.10
2013-2-5,36,33,31,35,32,28,100,98,77,29.94,29.82,6,0,6,0.16
2013-2-6,33,30,22,31,28,21,100,92,76,30.31,29.94,2,0,0,0.13
2013-2-7,44,32,20,33,27,20,100,86,62,30.29,29.97,8,1,11,0.00
2013-2-8,43,35,26,40,32,24,100,90,76,30.15,29.80,11,1,12,0.13
2013-2-9,36,28,23,25,22,19,95,79,56,30.37,30.15,9,2,9,0.14
2013-2-10,54,28,18,30,21,18,99,79,31,30.34,29.98,8,0,8,0.00
2013-2-11,62,57,48,48,43,35,87,62,36,29.89,29.71,12,7,12,0.01
2013-2-12,46,39,34,29,26,23,69,62,51,30.07,29.93,4,1,6,0.05
2013-2-13,41,33,28,35,29,23,100,87,66,29.93,29.67,9,0,9,0.18
2013-2-14,43,38,30,38,32,30,100,82,65,29.97,29.85,9,3,12,0.18
2013-2-15,40,36,31,37,32,29,100,90,67,30.05,29.91,5,0,5,0.01
2013-2-16,31,31,31,31,31,31,100,100,100,30.03,30.02,0,0,0,0.01
2013-2-17,23,20,16,21,15,10,96,83,67,30.24,29.90,11,3,11,0.04
2013-2-18,49,35,14,33,21,8,87,58,39,30.29,29.90,7,1,9,0.00
2013-2-19,50,41,29,41,32,25,98,75,39,29.92,29.69,12,6,13,0.11
2013-2-20,23,21,20,19,17,15,93,86,77,30.19,29.98,6,2,7,0.13
2013-2-21,24,21,20,19,16,14,94,82,74,30.29,30.17,6,1,5,0.01
2013-2-22,33,33,33,21,20,20,62,60,58,30.10,30.06,6,6,6,0.00
2013-2-23,53,42,35,42,38,34,100,87,67,29.94,29.82,8,1,8,0.01
2013-2-24,37,32,29,35,29,25,100,90,78,30.09,29.84,8,1,8,0.00
2013-2-25,47,38,27,28,26,22,93,62,48,30.22,30.03,7,1,9,0.00
2013-2-26,41,38,36,39,30,22,100,73,54,30.05,29.52,19,4,19,0.49
2013-2-27,42,40,34,40,38,34,100,95,78,29.69,29.55,13,1,13,0.49
2013-2-28,34,33,32,34,33,31,100,99,91,29.80,29.64,5,0,6,0.16
2013-3-1,34,31,29,34,30,25,100,93,80,29.95,29.79,8,1,9,0.09
2013-3-2,30,27,25,27,25,22,100,92,74,29.94,29.88,6,1,10,0.02
2013-3-3,29,26,23,26,23,20,100,88,68,29.99,29.90,8,2,9,0.01
2013-3-4,38,29,22,23,20,16,98,72,50,30.12,29.99,6,1,12,0.02
2013-3-5,55,37,23,34,24,20,99,63,27,30.08,29.64,10,1,17,0.02
2013-3-6,42,35,32,36,32,29,100,89,70,30.09,29.63,6,1,9,0.13
2013-3-7,39,36,33,34,33,29,100,90,68,30.26,30.08,7,1,10,0.35
2013-3-8,36,33,29,30,29,27,92,84,74,30.39,30.26,9,3,13,0.00
2013-3-9,62,41,23,36,27,21,100,66,27,30.40,30.17,6,0,6,0.00
2013-3-10,73,56,45,36,28,23,53,36,19,30.17,30.00,7,1,9,0.00
2013-3-11,64,57,52,52,35,29,95,45,27,30.03,29.74,7,1,10,0.05
2013-3-12,53,40,37,52,38,31,100,91,78,30.01,29.77,8,1,9,0.22
2013-3-13,37,32,28,33,29,21,100,87,57,30.13,29.93,11,2,17,0.12
2013-3-14,40,31,26,25,21,18,91,67,46,30.23,30.11,9,2,9,0.10
2013-3-15,51,38,28,35,27,20,77,64,51,30.14,29.81,7,1,11,0.00
2013-3-16,50,43,37,47,42,35,100,96,64,29.94,29.61,6,0,7,0.01
2013-3-17,39,35,31,36,28,25,98,78,60,30.17,29.94,6,0,6,0.01
2013-3-18,49,37,32,41,33,26,100,88,67,30.11,29.70,15,4,15,0.68
2013-3-19,49,42,33,47,37,21,100,83,51,29.97,29.70,10,3,13,0.68
2013-3-20,41,32,29,21,18,17,64,56,41,29.98,29.80,11,2,11,0.15
2013-3-21,25,23,22,21,20,19,88,86,84,29.86,29.85,3,2,0,0.00
2013-3-22,36,36,36,21,21,21,54,54,54,29.96,29.96,6,6,0,0.00
2013-3-23,49,43,35,26,24,21,68,49,35,30.00,29.95,8,2,8,0.00
2013-3-24,43,35,29,32,24,23,87,67,47,29.97,29.61,4,1,9,0.00
2013-3-25,36,34,32,36,34,32,100,100,98,29.72,29.47,6,1,5,0.08
2013-3-26,43,36,32,36,33,30,100,91,64,30.07,29.72,8,1,11,0.46
2013-3-27,41,36,32,34,30,25,100,81,53,30.16,30.07,7,1,10,0.01
2013-3-28,43,38,35,32,30,28,84,72,57,30.26,30.14,6,1,7,0.00
2013-3-29,51,44,37,34,29,24,82,58,35,30.27,30.15,6,1,8,0.00
2013-3-30,57,44,29,31,25,16,92,51,21,30.25,30.02,4,0,4,0.00
2013-3-31,51,48,43,49,38,-100,100,76,45,30.02,29.74,7,0,6,0.10
2013-4-1,46,42,34,46,33,17,100,75,39,30.02,29.74,9,2,10,0.10
2013-4-2,42,34,27,20,18,15,68,52,36,30.18,30.01,9,1,10,0.03
2013-4-3,41,33,29,20,17,13,67,53,37,30.38,30.18,9,2,9,0.00
2013-4-4,56,30,21,21,17,15,81,61,25,30.37,30.03,1,0,10,0.00
2013-4-5,57,46,39,33,27,23,72,48,35,30.14,29.94,11,2,11,0.00
2013-4-6,61,36,27,28,23,8,90,65,12,30.28,30.02,6,0,6,0.00
2013-4-7,72,61,56,54,40,23,90,49,27,30.02,29.91,12,3,12,0.20
2013-4-8,74,64,51,53,48,43,100,62,33,30.06,29.93,10,2,12,0.20
2013-4-9,81,69,58,54,51,47,72,53,35,30.12,29.93,7,1,9,0.00
2013-4-10,83,74,60,60,53,50,96,50,34,29.99,29.81,10,3,15,0.10
2013-4-11,79,68,57,60,56,53,100,70,43,29.90,29.58,7,1,7,0.10
2013-4-12,73,61,47,62,51,37,100,73,42,29.85,29.52,10,4,10,0.52
2013-4-13,58,48,39,38,34,31,75,59,37,30.00,29.84,8,2,10,0.52
2013-4-14,66,51,34,39,34,29,88,58,31,30.17,30.00,5,1,6,0.00
2013-4-15,65,61,58,50,45,37,68,55,39,30.13,29.98,7,2,11,0.00
2013-4-16,80,68,58,61,53,48,100,61,41,30.22,30.04,8,2,12,0.57
2013-4-17,60,58,57,60,58,57,100,100,100,30.22,30.14,0,0,0,0.57
2013-4-20,39,38,37,28,27,26,68,65,63,30.38,30.35,0,0,0,0.00
2013-4-21,53,39,29,30,27,23,94,65,34,30.57,30.38,7,0,7,0.00
2013-4-22,65,49,43,32,27,18,55,44,18,30.45,30.27,9,3,16,0.00
2013-4-23,62,49,41,41,36,33,79,62,38,30.28,29.98,7,1,10,0.00
2013-4-24,74,60,42,60,47,38,99,65,44,30.17,29.77,12,2,12,0.21
2013-4-25,57,44,35,39,35,30,100,74,38,30.35,30.17,7,1,7,0.21
2013-4-26,51,44,38,40,38,35,97,81,55,30.47,30.35,4,0,7,0.00
2013-4-27,64,63,61,41,40,39,46,43,40,30.18,30.17,3,1,7,0.00
2013-4-28,61,58,54,56,48,40,100,72,46,30.18,29.96,6,1,10,0.16
2013-4-29,67,59,55,59,51,-100,96,79,63,30.04,29.95,5,1,6,0.16
2013-4-30,78,63,55,54,52,49,90,69,41,30.20,30.03,7,2,11,0.01
2013-5-1,78,64,54,52,47,31,84,57,23,30.32,30.19,9,2,9,0.00
2013-5-2,82,66,51,41,33,16,63,34,9,30.35,30.21,9,2,10,0.00
2013-5-3,77,62,54,43,39,26,59,44,19,30.26,30.17,9,2,13,0.00
2013-5-4,75,57,48,42,37,27,61,48,27,30.21,30.09,5,1,9,0.00
2013-5-5,69,59,52,41,35,23,57,43,19,30.15,30.02,8,3,11,0.00
2013-5-6,72,59,50,55,47,37,87,65,49,30.08,30.01,7,1,12,0.00
2013-5-7,64,60,58,60,55,52,100,84,68,30.02,29.94,7,1,6,0.10
2013-5-8,72,61,51,58,52,46,100,76,44,29.99,29.90,8,0,8,0.23
2013-5-9,76,62,54,61,55,45,100,80,33,30.03,29.93,3,0,0,0.49
2013-5-10,75,62,59,63,56,-100,100,86,58,30.02,29.85,3,0,0,0.02
2013-5-11,61,59,53,61,57,49,100,94,81,29.86,29.79,2,0,4,0.43
2013-5-12,52,47,42,51,37,-100,97,73,45,30.06,29.85,8,1,9,0.57
2013-5-13,52,45,38,33,31,27,79,59,37,30.14,30.07,5,0,5,0.05
2013-5-17,61,61,61,61,61,61,100,100,100,30.04,30.04,0,0,0,0.00
2013-5-19,64,64,64,60,60,60,86,86,86,30.08,30.08,0,0,0,0.00
2013-5-22,66,65,64,66,65,64,100,100,100,29.90,29.82,2,0,5,0.78
2013-5-23,72,64,60,67,63,60,100,97,72,29.88,29.81,5,0,5,0.85
2013-5-24,60,46,39,60,42,33,100,85,59,30.29,29.85,11,3,13,0.70
2013-5-25,61,48,33,41,37,33,100,71,41,30.33,30.22,7,1,13,0.07
2013-5-26,67,52,39,44,39,35,97,64,32,30.31,30.22,3,0,9,0.00
2013-5-27,64,52,41,52,46,41,100,82,56,30.29,30.17,0,0,3,0.01
2013-5-28,79,71,61,71,62,55,98,74,55,30.12,30.02,3,0,7,0.01
2013-5-29,83,74,66,64,60,57,75,62,44,30.14,30.04,5,1,7,0.23
2013-5-30,87,76,64,67,62,58,88,64,44,30.22,30.11,3,0,0,0.00
2013-5-31,86,73,66,64,62,59,90,70,45,30.15,30.01,2,0,0,0.00
2013-6-1,83,73,66,71,65,61,100,77,52,30.06,29.86,3,0,3,0.41
2013-6-2,78,72,66,69,63,-100,100,79,62,29.90,29.84,5,1,8,0.41
2013-6-3,67,63,55,65,60,53,100,89,69,30.06,29.89,4,0,6,0.26
2013-6-4,72,58,44,53,48,44,100,73,42,30.18,30.06,4,0,7,0.01
2013-6-5,83,67,53,63,56,50,92,70,42,30.14,29.93,8,1,7,0.01
2013-6-6,70,66,63,67,63,59,100,92,67,29.97,29.76,4,0,5,0.01
2013-6-7,65,64,62,65,63,59,100,98,90,29.85,29.75,6,1,6,0.79
2013-6-8,70,62,56,60,58,55,100,86,65,30.12,29.85,6,0,4,0.13
2013-6-9,85,70,58,65,61,58,100,76,42,30.18,30.03,5,1,7,0.00
2013-6-10,75,69,65,71,66,64,100,92,76,30.05,29.82,5,0,5,0.34
2013-6-11,76,68,63,68,64,62,100,90,62,29.93,29.83,5,0,12,0.34
2013-6-12,82,73,65,72,67,64,100,82,59,29.95,29.80,4,0,6,0.01
2013-6-13,74,67,62,72,65,59,100,92,78,29.80,29.58,9,1,11,0.79
2013-6-14,71,62,56,63,57,54,100,84,59,30.08,29.80,8,1,10,0.77
2013-6-15,79,66,55,61,54,46,100,71,34,30.16,30.03,5,0,9,0.02
2013-6-16,74,67,63,68,63,55,100,87,70,30.05,29.95,5,0,6,0.09
2013-6-17,80,72,67,71,66,62,100,83,54,30.01,29.93,2,0,5,0.09
2013-6-18,74,68,65,69,66,62,100,93,69,29.95,29.86,6,0,8,0.17
2013-6-19,78,68,61,66,57,49,100,71,40,30.16,29.95,5,0,7,0.01
2013-6-20,82,65,53,61,56,52,100,77,38,30.25,30.15,6,0,10,0.00
2013-6-22,87,81,74,69,66,64,74,60,47,30.24,30.10,2,0,5,0.00
2013-6-23,88,76,65,69,65,60,98,71,39,30.19,30.08,3,0,4,0.00
2013-6-24,85,76,67,70,66,64,91,75,54,30.17,30.05,1,0,3,0.18
2013-6-25,87,76,65,70,67,62,100,75,48,30.09,29.93,6,1,6,0.09
2013-6-26,79,71,65,73,68,65,100,91,69,29.99,29.86,5,0,4,0.14
2013-6-27,71,69,68,71,69,67,100,99,92,29.86,29.70,4,0,0,0.01
2013-6-28,69,68,66,69,68,66,100,100,100,29.70,29.64,0,0,0,0.80
2013-7-1,82,74,69,71,69,65,100,84,60,29.96,29.88,3,0,4,0.48
2013-7-2,83,74,68,75,68,65,100,86,59,30.09,29.96,2,0,0,0.48
2013-7-3,86,75,68,72,68,65,100,82,58,30.20,30.09,1,0,3,0.26
2013-7-4,88,76,68,74,69,63,100,83,50,30.25,30.14,3,0,5,0.04
2013-7-5,87,74,68,72,68,65,100,83,54,30.20,30.14,4,0,5,0.23
2013-7-6,91,78,70,72,69,65,100,77,43,30.22,30.05,5,0,5,0.00
2013-7-7,79,73,69,71,68,65,100,86,66,30.14,30.04,4,0,6,0.22
2013-7-8,81,72,67,69,67,64,100,88,61,30.17,30.09,4,0,7,0.22
2013-7-9,80,72,68,74,70,68,100,94,78,30.14,30.02,8,0,9,1.79
2013-7-10,84,72,66,77,68,-100,100,89,66,30.07,29.87,6,1,6,2.75
2013-7-11,76,68,64,69,66,62,100,93,67,30.01,29.92,3,0,3,0.68
2013-7-12,73,65,59,69,64,59,100,96,73,30.12,30.00,6,0,4,0.12
2013-7-13,84,73,63,69,66,63,100,80,54,30.26,30.11,8,1,10,0.13
2013-7-14,91,80,72,71,67,63,82,67,43,30.33,30.25,5,1,10,0.01
2013-7-15,92,77,67,71,67,65,95,73,44,30.37,30.27,1,0,0,0.00
2013-7-16,82,73,70,74,71,69,100,93,73,30.35,30.28,0,0,0,0.00
2013-7-17,90,76,69,75,72,69,100,89,56,30.34,30.19,4,0,7,0.00
2013-7-18,91,79,70,76,72,67,100,82,47,30.23,30.07,3,0,5,0.00
2013-7-19,85,77,73,77,73,68,100,89,69,30.08,29.91,5,0,5,0.05
2013-7-20,74,70,68,74,69,-100,100,97,90,29.97,29.87,4,0,7,0.05
2013-7-21,82,73,68,74,70,68,100,92,65,30.01,29.93,2,0,0,1.31
2013-7-22,81,72,67,75,70,67,100,96,70,29.98,29.81,2,0,5,0.03
2013-7-23,83,71,64,71,68,63,100,90,59,29.82,29.74,7,0,9,0.93
2013-7-24,70,65,60,66,60,54,100,83,61,30.00,29.78,6,0,7,0.96
2013-7-25,76,64,53,59,55,52,100,78,45,30.10,30.00,4,0,8,0.01
2013-7-26,83,66,54,61,57,54,100,76,43,30.12,30.02,3,0,0,0.00
2013-7-27,72,66,60,71,66,59,100,97,88,30.03,29.88,4,0,6,0.24
2013-7-28,77,68,59,67,61,54,100,81,50,30.06,29.88,6,0,8,0.24
2013-7-29,73,64,55,61,57,54,100,81,54,30.22,30.06,3,0,6,0.52
2013-7-30,78,67,58,63,60,56,100,80,50,30.26,30.17,4,0,5,0.00
2013-7-31,77,67,59,67,63,59,100,89,61,30.18,29.99,2,0,0,0.02
2013-8-1,81,69,65,71,64,60,100,86,52,29.99,29.89,6,1,8,0.02
2013-8-2,80,69,63,66,62,56,100,80,46,30.01,29.93,2,0,6,0.13
2013-8-3,69,67,65,68,66,61,100,97,79,30.02,29.98,5,0,4,0.39
2013-8-4,74,65,59,65,59,53,100,83,51,30.10,30.01,7,1,12,0.39
2013-8-5,77,63,53,59,56,49,100,80,42,30.15,30.04,6,0,5,0.00
2013-8-6,82,68,58,63,58,54,97,72,42,30.05,29.99,5,0,3,0.00
2013-8-7,86,72,65,71,67,62,100,84,57,30.04,29.93,3,0,3,1.06
2013-8-8,84,72,66,74,70,66,100,94,64,30.02,29.95,2,0,4,0.72
2013-8-9,79,72,70,78,72,70,100,99,82,30.02,29.93,5,0,6,0.45
2013-8-10,81,72,65,70,65,60,100,83,50,30.12,30.02,2,0,5,1.64
2013-8-11,85,72,62,70,66,62,100,83,48,30.14,30.03,4,0,5,0.14
2013-8-21,83,69,59,70,65,59,100,90,62,30.22,30.09,2,0,5,0.04
2013-8-22,82,70,65,71,67,65,100,91,69,30.14,30.02,2,0,3,0.04
2013-8-23,78,69,64,70,66,62,100,91,57,30.16,30.01,2,0,3,0.07
2013-8-24,81,67,58,66,60,57,100,81,47,30.32,30.16,0,0,5,1.10
2013-8-25,82,68,58,64,58,-100,100,74,51,30.39,30.27,1,0,3,0.00
2013-8-26,83,70,61,67,63,60,99,81,57,30.30,30.08,2,0,4,0.00
2013-8-27,75,70,68,75,69,65,100,95,83,30.08,29.99,0,0,0,0.38
2013-8-28,77,74,71,77,32,-100,100,75,93,29.94,29.85,0,0,8,0.41
2013-8-29,84,74,69,73,70,68,100,88,58,30.05,29.94,2,0,5,1.74
2013-8-30,86,73,64,71,68,64,100,86,55,30.05,29.87,2,0,5,0.00
2013-9-13,68,60,50,64,29,-100,100,75,64,30.04,29.84,10,1,11,0.71
2013-9-14,64,54,48,51,5,-100,100,65,54,30.18,30.03,4,0,5,0.01
2013-9-15,72,54,44,58,5,-100,100,59,59,30.20,30.09,1,0,3,0.00
2013-9-16,68,60,56,59,57,53,100,90,62,30.30,30.07,2,0,6,0.40
2013-9-17,75,58,48,56,50,45,100,79,38,30.40,30.27,4,0,5,0.40
2013-9-18,56,52,48,48,46,42,98,82,60,30.27,30.24,3,0,0,0.00
2013-9-19,79,66,59,66,61,57,100,87,53,30.17,30.06,0,0,0,0.00
2013-9-20,77,68,59,69,65,59,100,90,70,30.07,29.87,2,0,3,0.00
2013-9-21,71,64,56,69,63,56,100,96,85,29.86,29.69,6,0,2,1.40
2013-9-22,64,56,52,57,50,-100,100,86,56,30.02,29.81,8,1,8,1.51
2013-9-23,56,52,44,52,48,44,100,87,65,30.16,30.03,4,0,5,0.00
2013-9-24,72,53,39,54,48,39,100,84,49,30.14,29.98,2,0,0,0.00
2013-9-25,78,58,49,55,52,49,100,83,42,29.99,29.89,0,0,0,0.00
2013-9-26,77,62,50,54,50,45,100,72,33,30.08,29.95,0,0,0,0.00
2013-9-27,78,60,47,56,52,47,100,78,37,30.20,30.08,4,0,5,0.00
2013-9-28,76,62,54,55,52,49,95,73,46,30.26,30.16,4,1,6,0.00
2013-9-29,76,60,53,58,51,-100,97,77,45,30.16,30.03,1,0,5,0.00
2013-9-30,71,60,52,62,58,52,100,93,70,30.09,30.01,2,0,0,0.01
2013-10-1,63,62,59,60,60,59,100,93,89,30.08,30.05,0,0,0,0.01
2013-10-2,80,66,59,64,61,59,100,86,53,30.14,30.07,2,0,3,0.00
2013-10-3,79,68,61,69,64,61,100,89,62,30.13,30.05,2,0,0,0.00
2013-10-4,80,70,64,69,65,64,100,86,62,30.15,30.06,2,0,3,0.02
2013-10-5,81,72,66,66,60,-100,95,77,54,30.12,30.01,2,0,0,0.00
2013-10-6,84,70,67,67,63,58,96,80,43,30.01,29.80,2,0,7,0.00
2013-10-7,71,57,47,59,52,45,100,83,60,30.14,29.73,5,1,6,0.89
2013-10-8,68,54,43,50,46,43,100,77,44,30.31,30.14,2,0,6,0.77
2013-10-9,71,58,48,48,43,38,92,63,30,30.34,30.24,5,0,8,0.00
2013-10-10,69,59,51,54,47,41,82,66,48,30.23,30.10,3,0,5,0.00
2013-10-11,59,55,53,58,54,51,100,97,82,30.10,30.06,3,0,3,0.10
2013-10-12,73,63,56,62,58,56,100,87,65,30.18,30.06,8,1,12,0.12
2013-10-13,75,63,59,60,54,-100,100,78,56,30.27,30.16,5,1,8,0.02
2013-10-14,65,60,57,60,58,56,100,93,79,30.31,30.23,4,0,5,0.03
2013-10-15,73,62,54,61,56,53,100,83,58,30.24,30.01,0,0,0,0.00
2013-10-16,61,58,56,54,52,48,90,82,70,30.01,29.97,0,0,0,0.00
2013-10-20,58,51,45,41,40,37,82,67,47,30.08,30.02,5,1,8,0.00
2013-10-21,66,52,38,42,39,37,100,66,35,30.09,29.89,5,0,6,0.00
2013-10-22,56,49,41,48,40,30,100,71,45,30.00,29.86,6,0,10,0.22
2013-10-23,42,40,37,41,40,36,100,98,85,29.95,29.77,3,0,3,0.19
2013-10-24,44,39,34,38,36,32,100,89,62,30.16,29.94,5,0,11,0.19
2013-10-25,43,38,33,38,35,33,100,89,73,30.38,30.16,3,0,3,0.00
2013-11-5,60,47,37,36,32,28,80,55,34,30.52,30.35,1,0,5,0.00
2013-11-6,74,63,40,49,45,32,84,53,38,30.35,29.95,8,2,10,0.00
2013-11-7,65,49,39,57,42,27,100,80,56,30.16,29.90,7,1,11,0.00
2013-11-8,45,38,32,31,29,26,85,69,50,30.30,30.12,10,1,10,0.00
2013-11-9,56,42,28,31,24,-100,99,58,28,30.29,30.00,9,1,11,0.00
2013-11-10,51,46,37,36,31,28,73,58,40,30.29,30.01,6,1,10,0.00
2013-11-11,50,41,33,42,32,28,97,71,45,30.31,30.05,8,1,11,0.04
2013-11-12,43,32,29,43,31,26,100,97,75,30.37,30.06,9,1,9,0.04
2013-11-13,35,33,30,25,24,23,82,69,62,30.47,30.39,5,4,5,0.25
2013-11-14,47,41,29,25,23,22,82,52,37,30.39,30.20,9,3,10,0.00
2013-11-17,67,61,56,60,53,47,97,75,60,30.07,29.58,9,3,10,0.01
2013-11-18,56,50,41,52,37,28,91,61,41,30.06,29.71,8,4,8,0.29
2013-11-19,40,36,30,28,27,25,86,69,59,30.38,30.06,10,2,10,0.00
2013-11-20,52,37,28,26,20,10,90,57,18,30.46,30.35,8,2,10,0.00
2013-11-21,59,47,35,44,33,21,71,60,45,30.43,30.25,6,1,6,0.00
2013-11-22,56,52,39,54,49,38,100,91,64,30.25,30.09,8,1,12,0.17
2013-11-23,39,35,34,37,32,29,95,90,82,30.27,30.22,5,1,5,0.16
2013-11-24,16,16,15,12,12,11,84,83,83,30.48,30.48,0,0,0,0.00
2013-11-25,25,17,15,13,12,11,91,82,61,30.50,30.43,0,0,0,0.00
2013-11-28,24,21,18,19,17,16,97,86,77,30.35,30.16,0,0,0,0.08
2013-11-29,29,28,27,25,24,23,89,85,83,30.61,30.42,0,0,0,0.00
2013-12-7,25,19,25,22,-8,-100,89,67,89,30.55,30.54,1,1,0,1.09
2013-12-8,23,22,21,21,20,19,94,93,91,30.55,30.50,0,0,0,0.00
2013-12-11,23,22,21,17,17,16,83,79,74,30.35,30.33,3,1,0,0.02
2013-12-12,23,21,18,15,11,9,84,67,59,30.46,30.27,4,2,4,0.00
2013-12-13,33,22,20,19,12,10,68,64,56,30.27,30.24,4,0,4,0.00
2013-12-14,34,33,33,25,22,19,72,64,55,30.22,30.17,0,0,0,0.00
2013-12-16,24,24,23,22,22,22,97,94,90,30.11,30.08,0,0,0,0.02
2013-12-17,35,33,32,33,32,32,100,97,93,29.98,29.95,6,3,6,0.06
2013-12-18,28,28,28,24,24,24,84,84,83,30.18,30.16,0,0,0,0.06
2013-12-19,40,36,33,24,20,16,68,52,41,30.09,30.08,6,3,6,0.00
2013-12-25,30,23,14,25,19,13,94,84,66,30.49,30.23,0,0,0,0.02
2013-12-26,32,32,32,25,25,25,75,75,75,30.20,30.20,0,0,0,0.00
2013-12-27,31,31,31,23,23,23,72,72,72,30.35,30.35,3,1,3,0.00
2013-12-28,36,36,36,23,23,23,59,58,58,30.27,30.27,6,6,6,0.00
2013-12-31,27,27,27,22,22,22,82,82,82,30.29,30.29,0,0,0,0.01
2014-1-1,39,31,27,29,25,22,90,80,62,30.31,30.06,3,0,0,0.01
2014-1-2,31,30,29,28,28,28,95,92,90,30.04,30.01,0,0,0,0.00